GW5728 Weather Reports


time (UTC)temp
F
wind
direction
speed
knots
gust
knots
rain 1hr
in
rain 24hr
in
rain mn
in
humidity
%
barometer
mb
20260507090836 53 273 0.0 9.6 0.00 0.00 0.00 75 1066.0
20260507085821 53 99 0.0 9.6 0.00 0.00 0.00 75 1042.2
20260507085321 53 149 0.0 9.6 0.00 0.00 0.00 75 1047.5
20260507084822 53 170 0.9 9.6 0.00 0.00 0.00 74 1049.0
20260507084322 54 188 0.0 9.6 0.00 0.00 0.00 75 1054.9
20260507083822 54 81 1.7 9.6 0.00 0.00 0.00 74 1057.2
20260507083321 54 163 0.9 9.6 0.00 0.00 0.00 74 1051.6
20260507082821 54 229 0.9 9.6 0.00 0.00 0.00 74 1052.8
20260507082322 54 221 0.0 9.6 0.00 0.00 0.00 75 1055.7
20260507081821 54 171 0.9 9.6 0.00 0.00 0.00 75 1054.0
20260507081321 54 220 0.9 9.6 0.00 0.00 0.00 75 1060.4
20260507080821 54 263 0.9 9.6 0.00 0.00 0.00 76 1054.5
20260507080321 54 150 0.9 9.6 0.00 0.00 0.00 77 1046.6
20260507075822 54 131 0.9 9.6 0.00 0.00 0.00 78 1043.7
20260507075322 54 143 0.0 9.6 0.00 0.00 0.00 78 1055.2
20260507074822 54 216 0.9 9.6 0.00 0.00 0.00 78 1067.7
20260507074322 54 340 0.9 9.6 0.00 0.00 0.00 78 1070.6
20260507073822 54 106 0.0 9.6 0.00 0.00 0.00 79 1058.0
20260507073322 54 101 0.9 9.6 0.00 0.00 0.00 78 1065.7
20260507072822 54 306 0.9 9.6 0.00 0.00 0.00 78 1069.2
20260507072322 54 264 1.7 9.6 0.00 0.00 0.00 79 1073.8
20260507071307 54 316 0.9 9.6 0.00 0.00 0.00 79 1066.0
20260507065737 54 213 0.0 9.6 0.00 0.00 0.00 78 1052.7
20260507064207 54 164 0.0 9.6 0.00 0.00 0.00 78 1055.3
20260507063152 54 284 0.0 9.6 0.00 0.00 0.00 78 1067.3
20260507062652 54 150 0.9 9.6 0.00 0.00 0.00 78 1058.7
20260507061122 54 110 0.0 9.6 0.00 0.00 0.00 78 1039.9
20260507060622 54 228 0.0 9.6 0.00 0.00 0.00 78 1054.0
20260507060122 54 150 0.0 9.6 0.00 0.00 0.00 78 1046.7
20260507055107 55 192 0.0 9.6 0.00 0.00 0.00 77 1033.6
20260507054607 55 57 0.0 9.6 0.00 0.00 0.00 77 1038.2
20260507054107 55 291 0.0 9.6 0.00 0.00 0.00 76 1066.1
20260507053607 55 207 0.0 9.6 0.00 0.00 0.00 76 1055.2
20260507053107 56 3 0.0 9.6 0.00 0.00 0.00 75 1059.5
20260507052607 56 326 0.9 9.6 0.00 0.00 0.00 75 1054.2
20260507051551 56 321 0.9 9.6 0.00 0.00 0.00 75 1082.6
20260507051052 56 345 0.0 9.6 0.00 0.00 0.00 76 1064.7
20260507050551 56 192 0.0 9.6 0.00 0.00 0.00 76 1036.8
20260507045021 56 134 0.0 9.6 0.00 0.00 0.00 75 1051.4
20260507044521 56 165 0.9 9.6 0.00 0.00 0.00 74 1060.8
20260507044021 56 179 0.9 9.6 0.00 0.00 0.00 75 1061.4
20260507042451 56 245 0.0 9.6 0.00 0.00 0.00 75 1043.9
20260507041436 56 137 0.0 9.6 0.00 0.00 0.00 75 1057.0
20260507040936 56 298 0.0 9.6 0.00 0.00 0.00 75 1057.6
20260507040436 56 216 0.9 9.6 0.00 0.00 0.00 75 1039.8
20260507035936 56 95 0.0 9.6 0.00 0.00 0.00 75 1015.2
20260507035436 56 72 0.0 9.6 0.00 0.00 0.00 76 1023.6
20260507034421 56 85 0.0 9.6 0.00 0.00 0.00 75 1067.4
20260507033921 56 29 0.9 9.6 0.00 0.00 0.00 75 1052.9
20260507033421 57 45 0.9 9.6 0.00 0.00 0.00 75 1037.4
20260507032921 57 107 0.0 9.6 0.00 0.00 0.00 74 1032.8
20260507032421 57 293 0.0 9.6 0.00 0.00 0.00 74 1051.8
20260507031921 57 144 0.0 9.6 0.00 0.00 0.00 73 1045.1
20260507030906 58 282 0.9 9.6 0.00 0.00 0.00 73 1053.4
20260507030406 58 132 2.6 9.6 0.00 0.00 0.00 72 1035.7
20260507025906 58 71 1.7 9.6 0.00 0.00 0.00 73 1042.3
20260507024336 58 37 0.9 9.6 0.00 0.00 0.00 72 1035.6
20260507023836 58 168 1.7 9.6 0.00 0.00 0.00 71 1043.4
20260507023336 58 204 0.9 9.6 0.00 0.00 0.00 71 1044.2
20260507022836 59 127 0.9 9.6 0.00 0.00 0.00 71 1034.4
20260507022337 59 125 0.9 9.6 0.00 0.00 0.00 72 1053.3
20260507021837 59 304 0.9 9.6 0.00 0.00 0.00 71 1064.8
20260507021336 59 149 0.9 9.6 0.00 0.00 0.00 70 1044.9
20260507020836 59 275 0.0 9.6 0.00 0.00 0.00 71 1058.2
20260507020336 60 245 1.7 9.6 0.00 0.00 0.00 70 1048.1
20260507014251 60 165 0.9 9.6 0.00 0.00 0.00 69 1035.6
20260507013751 60 116 0.9 9.6 0.00 0.00 0.00 70 1030.3
20260507012736 61 145 1.7 9.6 0.00 0.00 0.00 70 1052.3
20260507012236 61 322 0.9 9.6 0.00 0.00 0.00 70 1055.4
20260507011737 61 264 0.9 9.6 0.00 0.00 0.00 69 1075.2
20260507011236 62 280 0.9 9.6 0.00 0.00 0.00 69 1071.0
20260507010736 62 135 0.9 9.6 0.00 0.00 0.00 68 1062.6
20260507010237 63 295 0.0 9.6 0.00 0.00 0.00 68 1077.7
20260507005736 63 192 0.0 9.6 0.00 0.00 0.00 69 1065.5
20260507005236 63 247 0.0 9.6 0.00 0.00 0.00 68 1060.9
20260507004736 63 38 0.9 9.6 0.00 0.00 0.00 68 1053.0
20260507004237 63 218 0.0 9.6 0.00 0.00 0.00 68 1066.9
20260507003736 63 324 1.7 9.6 0.00 0.00 0.00 69 1061.0
20260507003236 63 254 0.0 9.6 0.00 0.00 0.00 68 1065.8
20260507002736 63 164 0.0 9.6 0.00 0.00 0.00 69 1061.0
20260507002237 63 316 0.9 9.6 0.00 0.00 0.00 67 1085.2
20260507001737 63 273 0.0 9.6 0.00 0.00 0.00 67 1078.3
20260507001237 64 333 0.9 9.6 0.00 0.00 0.00 68 1071.2
20260507000737 64 237 0.9 9.6 0.00 0.00 0.00 67 1064.4
20260506235207 64 252 0.9 9.6 0.00 0.00 0.00 65 1068.5
20260506234707 64 1 0.9 9.6 0.00 0.00 0.00 66 1054.2
20260506234207 65 79 1.7 9.6 0.00 0.00 0.00 65 1054.6
20260506233707 65 192 0.9 9.6 0.00 0.00 0.00 63 1058.1
20260506233207 66 229 0.9 9.6 0.00 0.00 0.00 62 1069.6
20260506232707 67 214 0.9 9.6 0.00 0.00 0.00 62 1063.0
20260506232207 67 321 1.7 9.6 0.00 0.00 0.00 63 1067.4
20260506231707 66 257 1.7 9.6 0.00 0.00 0.00 64 1065.8
20260506231207 66 235 1.7 9.6 0.00 0.00 0.00 65 1062.9
20260506230707 66 140 0.9 9.6 0.00 0.00 0.00 63 1052.8
20260506225137 67 317 1.7 9.6 0.00 0.00 0.00 63 1060.7
20260506224637 67 330 1.7 9.6 0.00 0.00 0.00 64 1062.3
20260506223622 67 285 0.9 9.6 0.00 0.00 0.00 65 1072.8
20260506223122 67 264 0.9 9.6 0.00 0.00 0.00 63 1064.9
20260506222622 66 261 0.9 9.6 0.00 0.00 0.00 65 1071.5
20260506222122 66 242 2.6 9.6 0.00 0.00 0.00 65 1064.8
20260506221107 67 198 2.6 9.6 0.00 0.00 0.00 63 1060.2
20260506220607 67 212 1.7 9.6 0.00 0.00 0.00 63 1059.7
20260506220107 67 216 2.6 9.6 0.00 0.00 0.00 62 1055.6
20260506215607 68 31 0.9 9.6 0.00 0.00 0.00 63 1046.6
20260506215107 68 262 0.9 9.6 0.00 0.00 0.00 63 1059.8
20260506214607 68 103 0.9 9.6 0.00 0.00 0.00 61 1058.6
20260506214107 68 254 0.9 9.6 0.00 0.00 0.00 60 1069.4
20260506213607 68 144 0.0 9.6 0.00 0.00 0.00 63 1070.4
20260506213107 67 217 0.9 9.6 0.00 0.00 0.00 61 1079.8
20260506212607 67 336 0.9 9.6 0.00 0.00 0.00 62 1087.2
20260506212107 68 270 0.9 9.6 0.00 0.00 0.00 60 1083.8
20260506211607 68 249 0.9 9.6 0.00 0.00 0.00 59 1074.5
20260506211107 69 271 1.7 9.6 0.00 0.00 0.00 58 1078.4
20260506210607 69 216 0.9 9.6 0.00 0.00 0.00 62 1072.0
20260506210107 69 251 0.9 9.6 0.00 0.00 0.00 57 1076.1
20260506205607 69 273 0.9 9.6 0.00 0.00 0.00 60 1072.7
20260506205107 68 134 0.9 9.6 0.00 0.00 0.00 62 1058.0
20260506204607 68 243 0.9 9.6 0.00 0.00 0.00 60 1070.1
20260506204107 67 76 0.0 9.6 0.00 0.00 0.00 65 1062.5
20260506203052 67 316 0.9 9.6 0.00 0.00 0.00 63 1082.8
20260506202037 67 305 0.9 9.6 0.00 0.00 0.00 64 1063.5
20260506200507 66 312 0.9 9.6 0.00 0.00 0.00 68 1078.7
20260506200007 66 247 1.7 9.6 0.00 0.00 0.00 66 1067.4
20260506195507 66 333 0.9 9.6 0.00 0.00 0.00 69 1077.5
20260506194452 66 354 0.9 9.6 0.00 0.00 0.00 72 1083.1
20260506193952 66 358 0.9 9.6 0.00 0.00 0.00 70 1048.4
20260506193452 66 52 0.0 9.6 0.00 0.00 0.00 71 1037.7
20260506192952 65 307 0.0 9.6 0.00 0.00 0.00 72 1069.6
20260506185837 63 294 0.9 9.6 0.00 0.00 0.00 73 1072.1
20260506185338 63 250 1.7 9.6 0.00 0.00 0.00 72 1083.3
20260506184838 62 335 0.0 9.6 0.00 0.00 0.00 77 1091.8
20260506184338 62 264 0.9 9.6 0.00 0.00 0.00 76 1075.3
20260506183838 61 218 0.0 9.6 0.00 0.00 0.00 78 1067.5
20260506183338 61 199 0.9 9.6 0.00 0.00 0.00 75 1067.9
20260506182837 61 222 1.7 9.6 0.00 0.00 0.00 75 1069.2
20260506181822 61 222 0.9 9.6 0.00 0.00 0.00 74 1067.2
20260506180807 61 146 0.9 9.6 0.00 0.00 0.00 75 1055.9
20260506180308 62 221 0.9 9.6 0.00 0.00 0.00 74 1058.8
20260506175807 61 279 0.0 9.6 0.00 0.00 0.00 76 1077.3
20260506175307 61 278 0.0 9.6 0.00 0.00 0.00 76 1069.8
20260506174807 61 195 0.9 9.6 0.00 0.00 0.00 75 1045.9
20260506173752 60 151 0.9 9.6 0.00 0.00 0.00 76 1052.7
20260506172737 60 266 0.9 9.6 0.00 0.00 0.00 78 1071.7
20260506172237 59 201 0.9 9.6 0.00 0.00 0.00 77 1066.8
20260506171737 59 236 0.0 9.6 0.00 0.00 0.00 77 1069.2
20260506171238 59 257 0.0 9.6 0.00 0.00 0.00 77 1065.2
20260506170738 59 211 0.0 9.6 0.00 0.00 0.00 78 1062.0
20260506170238 59 205 0.0 9.6 0.00 0.00 0.00 78 1067.3
20260506165738 59 244 0.0 9.6 0.00 0.00 0.00 77 1078.1
20260506165238 59 241 0.9 9.6 0.00 0.00 0.00 76 1081.4
20260506164738 59 309 0.0 9.6 0.00 0.00 0.00 78 1084.1
20260506164238 59 287 0.0 9.6 0.00 0.00 0.00 77 1073.2
20260506163738 59 247 0.9 9.6 0.00 0.00 0.00 77 1067.7
20260506163238 59 211 1.7 9.6 0.00 0.00 0.00 76 1065.6
20260506162738 59 226 0.0 9.6 0.00 0.00 0.00 77 1068.3
20260506162238 58 255 0.9 9.6 0.00 0.00 0.00 78 1072.8
20260506161738 58 219 0.9 9.6 0.00 0.00 0.00 77 1069.0
20260506160723 58 321 0.0 9.6 0.00 0.00 0.00 78 1083.4
20260506155153 58 209 0.0 9.6 0.00 0.00 0.00 77 1065.4
20260506154653 58 250 0.9 9.6 0.00 0.00 0.00 77 1068.3
20260506153638 59 274 0.0 9.6 0.00 0.00 0.00 76 1063.2
20260506153138 59 264 0.9 9.6 0.00 0.00 0.00 75 1046.3
20260506152638 59 130 0.0 9.6 0.00 0.00 0.00 80 1029.9
20260506152138 59 130 0.0 9.6 0.00 0.00 0.00 79 1033.9
20260506151638 59 147 0.0 9.6 0.00 0.00 0.00 78 1041.6
20260506151138 58 136 0.0 9.6 0.00 0.00 0.00 78 1053.6
20260506150638 58 198 0.0 9.6 0.00 0.00 0.00 80 1072.7
20260506150138 57 251 0.9 9.6 0.00 0.00 0.00 79 1081.7
20260506145638 57 224 0.0 9.6 0.00 0.00 0.00 82 1078.9
20260506145138 56 264 0.9 9.6 0.00 0.00 0.00 81 1076.3
20260506144638 56 324 0.9 9.6 0.00 0.00 0.00 81 1072.2
20260506144138 56 225 0.0 9.6 0.00 0.00 0.00 81 1060.5
20260506143638 56 210 0.9 9.6 0.00 0.00 0.00 81 1052.7
20260506142623 55 241 0.9 9.6 0.00 0.00 0.00 82 1071.9
20260506142123 55 257 0.9 9.6 0.00 0.00 0.00 82 1069.2
20260506141108 55 268 0.9 9.6 0.00 0.00 0.00 83 1074.1
20260506140608 55 339 0.0 9.6 0.00 0.00 0.00 83 1085.9
20260506135553 55 252 0.9 9.6 0.00 0.00 0.00 83 1082.0
20260506135053 55 288 0.9 9.6 0.00 0.00 0.00 83 1082.8
20260506134553 55 314 0.0 9.6 0.00 0.00 0.00 83 1071.7
20260506134053 55 223 0.0 9.6 0.00 0.00 0.00 84 1069.2
20260506132523 55 265 0.0 9.6 0.00 0.00 0.00 83 1083.6
20260506132023 55 245 0.9 9.6 0.00 0.00 0.00 83 1078.6
20260506131523 55 262 0.0 9.6 0.00 0.00 0.00 84 1076.7
20260506131023 55 274 0.0 9.6 0.00 0.00 0.00 84 1073.8
20260506130523 55 228 0.0 9.6 0.00 0.00 0.00 84 1070.6
20260506130023 55 225 0.9 9.6 0.00 0.00 0.00 84 1074.3
20260506125523 55 252 0.0 9.6 0.00 0.00 0.00 84 1070.2
20260506125022 55 231 0.9 9.6 0.00 0.00 0.00 84 1069.9
20260506124522 55 228 0.0 9.6 0.00 0.00 0.00 84 1067.2
20260506124022 55 203 0.0 9.6 0.00 0.00 0.00 84 1075.8
20260506123522 55 290 1.7 9.6 0.00 0.00 0.00 85 1074.7
20260506122507 55 220 0.9 9.6 0.00 0.00 0.00 85 1062.3
20260506122007 55 249 0.9 9.6 0.00 0.00 0.00 85 1059.2
20260506121507 55 31 0.0 9.6 0.00 0.00 0.00 85 1043.9
20260506121007 55 282 0.0 9.6 0.00 0.00 0.00 85 1072.2
20260506120507 55 292 0.0 9.6 0.00 0.00 0.00 84 1082.6
20260506120007 55 238 0.9 9.6 0.00 0.00 0.00 84 1079.4
20260506115506 55 310 0.9 9.6 0.00 0.00 0.00 84 1078.2
20260506115005 56 305 1.7 9.6 0.00 0.00 0.00 84 1076.7
20260506114505 56 329 0.0 9.6 0.00 0.00 0.00 84 1076.2
20260506114005 56 286 0.0 9.6 0.00 0.00 0.00 83 1070.1
20260506113504 56 322 0.9 9.6 0.00 0.00 0.00 83 1058.0
20260506111934 56 290 0.0 9.6 0.00 0.00 0.00 83 1077.3
20260506111434 56 215 0.0 9.6 0.00 0.00 0.00 83 1070.3
20260506110419 57 303 0.0 9.6 0.00 0.00 0.00 83 1079.3
20260506105919 57 236 0.0 9.6 0.00 0.00 0.00 83 1071.8
20260506105419 57 192 0.9 9.6 0.00 0.00 0.00 83 1064.9
20260506104919 57 266 0.0 9.6 0.00 0.00 0.00 83 1074.8
20260506103904 57 191 0.0 9.6 0.00 0.00 0.00 83 1063.5
20260506103403 57 336 0.9 9.6 0.00 0.00 0.00 83 1057.0
20260506102903 57 161 0.9 9.6 0.00 0.00 0.00 83 1056.9
20260506102404 57 176 0.0 9.6 0.00 0.00 0.00 83 1070.6
20260506100833 56 274 0.0 9.6 0.00 0.00 0.00 84 1095.1
20260506100333 56 300 0.0 9.6 0.00 0.00 0.00 84 1092.0
20260506095833 56 283 0.0 9.6 0.00 0.00 0.00 84 1089.8
20260506095333 57 278 0.0 9.6 0.00 0.00 0.00 84 1089.4
20260506094834 57 284 0.0 9.6 0.00 0.00 0.00 84 1089.0
20260506094333 57 284 0.0 9.6 0.00 0.00 0.00 84 1086.6
20260506093834 56 270 0.0 9.6 0.00 0.00 0.00 84 1085.3
20260506092819 56 267 0.0 9.6 0.00 0.00 0.00 84 1083.6
20260506092318 56 256 0.0 9.6 0.00 0.00 0.00 84 1085.0
20260506091818 56 263 0.0 9.6 0.00 0.00 0.00 84 1091.5
20260506091317 56 301 0.0 9.6 0.00 0.00 0.00 85 1091.0